Back to catalog

BREEZE-M R/B

AliveMEO
NORAD 43433·ROCKET BODY·🇷🇺 Russia

Launched Apr 18, 2018 from Baikonur Cosmodrome

Loading…

Next Passes (next 24 hours)

TLE

FreshSource: Space-Track

Epoch: Sep 13, 2026, 13:38 UTC

1 43433U 18037B   26256.56874784 -.00000167  00000-0  00000-0 0  9991
2 43433   8.3912  70.2731 0671929  30.5662 333.3487  0.90513924 28002

Track BREEZE-M R/B in real time with AllMySat

Download on the App Store